Weather observations for the past three days for
Pullman / Moscow Regional Airport
Metric (Imperial)
Date Time (pdt) Wind (kph) Vis. (km) Weather Sky Cond. Temperature (ºC) Relative Humidity Wind Chill (°C) Heat Index (°C) Pressure Precipitation (cm)
Air Dwpt 6 hour altimeter (cm) sea level (mb) 1 hr 3 hr 6 hr
Max. Min.
06 01:53 NE 7 16.09 Fair CLR 10 2.2 59% 9 76.07 1013.5
06 00:53 Calm 16.09 Fair CLR 7.8 3.3 73% 76.07 1013.6
05 23:53 Calm 16.09 Fair CLR 9.4 3.3 66% 76.05 1013.1
05 22:53 Calm 16.09 A Few Clouds FEW095 10.6 3.3 22.2 10 61% 76 1012.7
05 21:53 Calm 16.09 Fair CLR 11.7 3.3 57% 76 1012.5
05 20:53 Calm 16.09 Fair CLR 12.2 4.4 59% 75.97 1012.2
05 19:53 N 7 16.09 Fair CLR 17.2 1.1 34% 75.95 1011.6
05 18:53 N 15 16.09 Fair CLR 20 -0.6 25% 75.92 1011.4
05 17:53 NE 24 16.09 Fair CLR 21.7 1.7 27% 75.92 1011.4
05 16:53 NW 17 G 33 16.09 Fair CLR 21.1 4.4 22.2 19.4 34% 75.92 1011.5
05 15:53 N 19 16.09 Fair CLR 21.7 2.8 29% 75.95 1011.9
05 14:53 N 17 16.09 Fair CLR 21.7 4.4 32% 75.97 1012.1
05 13:53 NW 19 16.09 Fair CLR 21.7 5.6 35% 76 1012.3
05 12:53 NW 11 16.09 Fair CLR 21.7 6.1 36% 76 1012.2
05 11:53 Vrbl 6 16.09 Fair CLR 21.1 5.6 37% 76 1012.3
05 10:53 Calm 16.09 Fair CLR 19.4 4.4 19.4 9.4 37% 76 1012.4
05 09:53 SE 11 16.09 Fair CLR 18.3 3.9 39% 76 1012.6
05 08:53 E 17 16.09 Fair CLR 17.2 2.2 37% 75.97 1012.4
05 07:53 E 15 16.09 Fair CLR 15.6 2.8 42% 75.97 1012.0
05 06:53 E 7 16.09 Fair CLR 12.2 3.3 55% 75.92 1011.4
05 05:53 Calm 16.09 Fair CLR 10 2.2 59% 75.9 1011.1
05 04:53 NE 11 16.09 Fair CLR 10.6 2.2 13.3 8.3 56% 75.87 1010.5
05 03:53 SE 9 16.09 Fair CLR 9.4 3.3 66% 8 75.84 1010.3
05 02:53 E 9 16.09 Fair CLR 11.1 3.3 59% 75.79 1009.6
05 01:53 SE 9 16.09 Fair CLR 10.6 3.9 64% 75.79 1009.6
05 00:53 E 15 16.09 Fair CLR 12.2 4.4 59% 75.77 1009.3
04 23:53 Calm 16.09 Fair CLR 12.2 5 62% 75.77 1009.0
04 22:53 E 6 16.09 Fair CLR 13.3 4.4 23.3 10.6 55% 75.74 1008.7
04 21:53 Calm 16.09 Fair CLR 11.1 5 66% 75.72 1008.8
04 20:53 Calm 16.09 Fair CLR 12.8 6.1 64% 75.69 1008.3
04 19:53 N 11 16.09 Fair CLR 17.2 5 45% 75.64 1007.6
04 18:53 N 15 14.48 Fair CLR 20.6 5 36% 75.62 1007.3
04 17:53 NW 15 16.09 Fair CLR 22.2 6.1 35% 75.64 1007.4
04 16:53 NW 15 G 28 16.09 Fair CLR 23.3 7.8 23.3 20 37% 75.64 1007.5
04 15:53 NW 15 16.09 Fair CLR 23.3 7.2 36% 75.64 1007.9
04 14:53 W 17 16.09 Fair CLR 22.8 8.3 40% 75.69 1008.2
04 13:53 NW 11 16.09 Fair CLR 22.8 9.4 43% 75.72 1008.6
04 12:53 W 11 16.09 Fair CLR 21.7 8.9 44% 75.72 1008.9
04 11:53 Vrbl 6 16.09 Fair CLR 20.6 7.2 42% 75.74 1009.2
04 10:53 W 13 16.09 Fair CLR 20 6.7 20 8.9 42% 75.74 1009.2
04 09:53 W 11 16.09 Fair CLR 18.9 6.1 43% 75.74 1009.0
04 08:53 S 7 11.27 Fair CLR 17.2 5 45% 75.74 1009.2
04 07:53 SE 6 16.09 Fair CLR 14.4 5.6 56% 75.77 1009.2
04 06:53 E 6 16.09 Fair CLR 11.7 3.9 59% 75.74 1008.9
04 05:53 Calm 16.09 Fair CLR 9.4 2.2 61% 75.72 1008.7
04 04:53 E 7 16.09 Fair CLR 8.9 2.2 10 6.7 63% 8 75.72 1008.5
04 03:53 Calm 16.09 Fair CLR 6.7 2.8 76% 75.74 1009.0
04 02:53 Calm 16.09 Fair CLR 7.8 2.8 71% 75.74 1009.0
04 01:53 Calm 16.09 Fair CLR 7.8 3.3 73% 75.74 1009.1
04 00:53 Calm 16.09 Fair CLR 7.8 3.3 73% 75.74 1009.2
03 23:53 Calm 16.09 Fair CLR 9.4 3.9 69% 75.77 1009.4
03 22:53 Calm 14.48 Fair CLR 10 4.4 23.9 10 68% 75.79 1009.6
03 21:53 Calm 16.09 Fair CLR 11.7 4.4 61% 75.82 1009.9
03 20:53 Calm 14.48 Fair CLR 12.2 5 62% 75.79 1010.0
03 19:53 W 9 16.09 Fair CLR 17.8 2.2 35% 75.79 1009.5
03 18:53 NW 9 16.09 Fair CLR 20 5 38% 75.79 1009.8
03 17:53 Vrbl 7 16.09 Fair CLR 22.2 4.4 31% 75.84 1010.4
03 16:53 NW 9 16.09 Fair CLR 23.9 4.4 23.9 21.1 28% 25 75.87 1011.0
03 15:53 N 11 16.09 Fair CLR 23.9 3.3 26% 25 75.92 1011.7
03 14:53 NW 15 16.09 Fair CLR 23.9 3.3 26% 25 76 1012.6
03 13:53 N 19 G 30 16.09 Fair CLR 23.9 6.1 32% 25 76.02 1013.0
03 12:53 Vrbl 7 16.09 Fair CLR 23.3 2.8 26% 76.07 1013.4
03 11:53 Calm 16.09 Fair CLR 22.2 3.9 30% 76.1 1014.0
03 10:53 Calm 16.09 Fair CLR 21.1 6.1 21.7 6.1 38% 76.15 1014.4
03 09:53 E 6 16.09 Fair CLR 20 8.3 47% 76.17 1014.5
03 08:53 E 7 16.09 Fair CLR 16.7 7.8 56% 76.17 1015.0
03 07:53 E 9 16.09 Fair CLR 14.4 6.1 58% 76.17 1014.7
03 06:53 E 6 16.09 Fair CLR 11.7 4.4 61% 76.15 1014.6
03 05:53 Calm 16.09 Fair CLR 7.8 3.3 73% 76.15 1014.7
03 04:53 Calm 16.09 Fair CLR 6.1 3.3 10 5.6 82% 76.15 1014.6
03 03:53 Calm 16.09 Fair CLR 6.1 3.3 82% 76.15 1014.7
03 02:53 Calm 16.09 Fair CLR 6.1 3.3 82% 76.15 1014.8
Date Time (pdt) Wind (kph) Vis. (km) Weather Sky Cond. Air Dwpt Max. Min. Relative Humidity Wind Chill (°C) Heat Index (°C) altimeter (cm) sea level (mb) 1 hr 3 hr 6 hr
6 hour
Temperature (ºC) Pressure Precipitation (cm)